Simultaneous Nadir Overpasses (SNOs) Predictions

Prediction of SNOs between AQUA and METOP-B Satellite Orbit:

Table of predicted SNOs for the next 14.0 days since TLE Epoch: 4/17/2013
Index Date (AQUA) Time (AQUA) Lat,Lon (AQUA) SZA (AQUA ) Date (METOP-B) Time (METOP-B) Lat,Lon (METOP-B) SZA (METOP-B ) Distance(km) Time Diff (sec)
1 04/19/2013 11:30:50 -73.74,-178.17 117.60 04/19/2013 11:30:11 -73.72,-178.21 117.62 2.65 39
2 04/19/2013 12:20:19 73.81, -10.69 62.47 04/19/2013 12:20:48 73.82, -10.63 62.47 2.46 29
3 04/22/2013 07:05:05 -73.72,-111.69 118.58 04/22/2013 07:04:32 -73.74,-111.74 118.56 2.57 33
4 04/22/2013 07:54:34 73.80, 55.77 61.49 04/22/2013 07:55:10 73.79, 55.72 61.49 1.55 36
5 04/25/2013 02:39:19 -73.74, -45.30 119.50 04/25/2013 02:38:52 -73.76, -45.29 119.47 1.87 27
6 04/25/2013 03:28:48 73.82, 122.16 60.59 04/25/2013 03:29:30 73.81, 122.18 60.57 1.50 42
7 04/27/2013 22:13:33 -73.74, 21.14 120.40 04/27/2013 22:13:13 -73.77, 21.16 120.37 2.93 20
8 04/27/2013 23:03:02 73.83,-171.42 59.69 04/27/2013 23:03:51 73.83,-171.37 59.68 1.67 49
9 04/30/2013 16:58:11 73.25, -79.01 58.23 04/30/2013 16:57:03 73.21, -81.03 58.25 64.95 68
10 04/30/2013 17:47:47 -73.78, 87.50 121.23 04/30/2013 17:47:34 -73.78, 87.59 121.23 2.92 13
11 04/30/2013 18:37:15 73.83,-104.96 58.81 04/30/2013 18:38:12 73.84,-104.93 58.82 1.33 57




NCC Satellite Simultaneous Nadir Overpasses (SNOs) Prediction Service
